[[{"header":{"parameterUnit":"m.s-1","parameterCategory":1,"la1":30.2991,"la2":30.254,"lo1":-89.0895,"lo2":-89.0444,"dy":0.0017,"dx":0.0017,"nx":28,"ny":28,"refTime":"2024-08-08T03:00:00:Z","depth":0,"parameterNumber":2,"parameterNumberName":"U-component_of_WINDS"},"data":[0,0,0,0,0,0,0,0,0,0,0,0,0,0,0,0,0,0,0,0,0,0,0,0,0,0,0,0,0,0,0,0,0,0,0,0,0,0,0,0,0,0,0,0,0,0,0,0,0,0,0,0,0,0,0,0,0,0,1.6679,1.668,0,1.6732,1.6733,1.6733,1.6706,1.6705,1.6703,1.6702,1.6761,1.6764,1.6766,0,0,0,0,0,0,0,0,0,0,0,0,0,1.6559,1.6561,1.6679,1.668,1.668,1.6732,1.6733,1.6734,1.6706,1.6705,1.6703,1.6701,1.676,1.6763,1.6767,0,0,0,0,0,0,0,0,0,0,0,0,0,1.6611,1.6562,1.6679,1.6673,1.6673,1.6732,1.6733,1.6734,1.6707,1.6705,1.6703,1.6701,1.6759,1.6763,1.6767,1.6836,0,0,1.678,1.6782,0,0,0,0,0,0,0,0,1.6608,1.6616,1.6673,1.6673,1.6673,1.671,1.6712,1.6768,1.6707,1.6694,1.6702,1.67,1.6746,1.6751,1.6766,1.6839,1.6842,1.6781,1.6783,1.6785,1.6786,0,0,0,0,0,0,0,1.6605,1.6613,1.67,1.6674,1.6674,1.6669,1.6674,1.6723,1.6731,1.6695,1.6693,1.67,1.6746,1.6762,1.6767,1.6843,1.6781,1.6784,1.6787,1.6789,1.6978,1.698,0,0,0,0,0,0,1.6601,1.6611,1.6698,1.6702,1.6635,1.6673,1.6679,1.6701,1.6731,1.6733,1.6701,1.6698,1.6756,1.6762,1.6769,1.6854,1.6785,1.6789,1.6792,1.6975,1.6978,1.6981,0,0,0,0,0,0,1.6598,1.6609,1.6696,1.6656,1.6666,1.6677,1.6702,1.6703,1.6719,1.6736,1.6737,1.6716,1.6754,1.6763,1.682,1.6855,1.6791,1.6795,1.6972,1.6976,1.698,1.7023,0,0,0,0,0,0,1.6595,1.6608,1.6633,1.6656,1.6669,1.6745,1.6704,1.6705,1.6726,1.6722,1.675,1.6752,1.6753,1.6814,1.6824,1.686,1.6798,1.6969,1.6974,1.6978,1.7018,1.7027,1.7035,0,0,0,0,0,1.6591,1.6644,1.6635,1.6646,1.67,1.6747,1.6754,1.6753,1.6729,1.6755,1.6766,1.6751,1.685,1.682,1.6832,1.6869,1.6967,1.6973,1.6978,1.7014,1.7025,1.7035,0,0,0,0,0,0,1.6626,1.6647,1.6637,1.6699,1.6721,1.6742,1.6775,1.6764,1.6795,1.6791,1.6789,1.6796,1.6855,1.6868,1.6834,1.6939,1.6905,1.6913,1.6928,1.6939,1.6948,1.6944,1.6802,0,0,0,0,0,1.664,1.6675,1.6692,1.6745,1.6757,1.6764,1.6785,1.6782,1.6806,1.6815,1.683,1.6855,1.6892,1.6916,1.6951,1.702,1.7026,1.7051,1.706,1.7067,1.7074,1.7114,1.7126,1.6999,1.6999,1.6999,0,0,1.6671,1.6687,1.6709,1.6753,1.677,1.6808,1.6773,1.6814,1.6842,1.6822,1.6877,1.6889,1.6917,1.6981,1.701,1.6993,1.7111,1.7074,1.7079,1.7083,1.7121,1.7133,1.7143,1.7002,1.7002,1.7001,0,0,1.6748,1.6762,1.6809,1.6827,1.6853,1.6857,1.6869,1.6892,1.6899,1.6954,1.694,1.6975,1.7037,1.7058,1.7077,1.7163,1.7151,1.7174,1.7219,1.7257,1.7267,1.7276,1.7309,1.732,1.7181,1.7181,1.7181,0,1.6783,1.6838,1.6834,1.6877,1.6897,1.6879,1.6928,1.6946,1.6983,1.6998,1.6978,1.7058,1.7075,1.7144,1.7166,1.7181,1.7195,1.7171,1.7266,1.7275,1.7283,1.7314,1.7326,1.7184,1.7184,1.7183,1.7183,0,1.6882,1.6921,1.6955,1.699,1.7014,1.706,1.7064,1.709,1.7085,1.7092,1.715,1.717,1.7209,1.7225,1.7221,1.7295,1.7284,1.7265,1.7232,1.7298,1.7327,1.7339,1.7188,1.7187,1.7186,1.7185,0,0,1.6982,1.7014,1.7027,1.7043,1.7071,1.7102,1.7148,1.7185,1.7207,1.7234,1.7273,1.7327,1.731,1.7332,1.733,1.7364,1.7433,1.7342,1.7342,1.7359,1.7518,1.7533,1.7546,1.7425,1.7427,1.7429,1.7516,0,1.7061,1.7139,1.7137,1.721,1.7247,1.7232,1.7271,1.7294,1.7303,1.7337,1.7346,1.7385,1.7359,1.7373,1.7405,1.7418,1.7465,1.7411,1.7464,1.7466,1.7459,1.7561,1.7577,1.7658,1.7527,1.7529,1.7531,0,1.7164,1.7193,1.7269,1.7293,1.7309,1.7344,1.7379,1.7411,1.7437,1.7441,1.7466,1.746,1.7508,1.7472,1.754,1.7503,1.7525,1.7534,1.7538,1.7544,1.7503,1.7572,1.7684,1.7696,1.7548,1.7547,1.7545,0,1.7231,1.7289,1.7343,1.7357,1.7386,1.7412,1.7425,1.7449,1.7472,1.7503,1.7519,1.7555,1.7576,1.7605,1.761,1.7583,1.7679,1.7643,1.7686,1.7686,1.7707,1.7706,1.7826,1.7719,1.7719,1.7719,1.7718,0,1.732,1.7368,1.7373,1.7407,1.7461,1.7459,1.7513,1.7525,1.7546,1.7583,1.7572,1.7607,1.761,1.7647,1.7651,1.7708,1.7717,1.7723,1.7724,1.7725,1.7724,1.774,1.7735,1.7722,1.7721,1.772,1.772,0,1.7405,1.741,1.7468,1.749,1.7497,1.7536,1.7557,1.7589,1.7597,1.7644,1.7655,1.7667,1.771,1.7717,1.7768,1.7771,1.7839,1.7833,1.783,1.783,1.7873,1.787,1.8008,1.8027,1.7906,1.7907,1.7908,0,1.7462,1.7499,1.7525,1.7548,1.7563,1.7601,1.7624,1.7624,1.765,1.7683,1.7712,1.7754,1.7787,1.7857,1.7872,1.7911,1.7907,1.7953,1.7913,1.7914,1.791,1.7908,1.7913,1.7961,1.7962,1.7963,1.7964,0,1.7564,1.7565,1.7598,1.7633,1.7661,1.7689,1.7715,1.7736,1.774,1.7769,1.7812,1.7838,1.7889,1.7932,1.7971,1.7987,1.7978,1.7977,1.7989,1.7991,1.7989,1.7993,1.7853,1.7974,1.7973,1.7972,1.7972,1.7971,1.7638,1.7671,1.7695,1.7733,1.7752,1.7777,1.781,1.7821,1.7857,1.7898,1.7896,1.7945,1.7972,1.8023,1.8042,1.8081,1.8066,1.8084,1.8089,1.8093,1.8098,1.7981,1.8088,1.8088,1.8087,1.8087,1.8087,0,1.7741,1.7756,1.7791,1.7828,1.7859,1.7845,1.7874,1.7901,1.7943,1.7968,1.8001,1.8052,1.8093,1.8111,1.8152,1.818,1.8177,1.8191,1.819,1.8194,1.8108,1.8094,1.8193,1.8193,1.8193,1.8193,1.8193,1.8193,1.7799,1.7853,1.7857,1.7923,1.7937,1.7983,1.8001,1.8025,1.8046,1.8102,1.8136,1.8147,1.817,1.8213,1.8251,1.8256,1.8272,1.8289,1.8292,1.8211,1.82,1.819,1.8177,1.8292,1.8292,1.8375,1.8376,1.8376]},{"header":{"parameterUnit":"m.s-1","parameterCategory":1,"la1":30.2991,"la2":30.254,"lo1":-89.0895,"lo2":-89.0444,"dy":0.0017,"dx":0.0017,"nx":28,"ny":28,"refTime":"2024-08-08T03:00:00:Z","depth":0,"parameterNumber":3,"parameterNumberName":"V-component_of_WINDS"},"data":[0,0,0,0,0,0,0,0,0,0,0,0,0,0,0,0,0,0,0,0,0,0,0,0,0,0,0,0,0,0,0,0,0,0,0,0,0,0,0,0,0,0,0,0,0,0,0,0,0,0,0,0,0,0,0,0,0,0,-1.8966,-1.8966,0,-1.897,-1.897,-1.897,-1.8954,-1.8954,-1.8953,-1.8953,-1.8955,-1.8955,-1.8956,0,0,0,0,0,0,0,0,0,0,0,0,0,-1.8945,-1.8946,-1.8966,-1.8966,-1.8966,-1.897,-1.897,-1.897,-1.8954,-1.8954,-1.8953,-1.8952,-1.8955,-1.8955,-1.8956,0,0,0,0,0,0,0,0,0,0,0,0,0,-1.8952,-1.8946,-1.8966,-1.8959,-1.8958,-1.897,-1.897,-1.897,-1.8954,-1.8954,-1.8953,-1.8952,-1.8955,-1.8955,-1.8956,-1.8974,0,0,-1.8958,-1.8959,0,0,0,0,0,0,0,0,-1.8952,-1.8953,-1.896,-1.8959,-1.8959,-1.8961,-1.8963,-1.8971,-1.8954,-1.8956,-1.8953,-1.8952,-1.8957,-1.8958,-1.896,-1.8974,-1.8974,-1.8958,-1.8959,-1.8959,-1.8959,0,0,0,0,0,0,0,-1.8951,-1.8953,-1.8967,-1.896,-1.8959,-1.8955,-1.8955,-1.8965,-1.896,-1.8956,-1.8954,-1.8955,-1.8957,-1.8959,-1.896,-1.8974,-1.8958,-1.8959,-1.8959,-1.896,-1.9005,-1.9006,0,0,0,0,0,0,-1.8952,-1.8952,-1.8967,-1.8967,-1.8954,-1.8956,-1.8956,-1.8961,-1.896,-1.8959,-1.8956,-1.8954,-1.8958,-1.8959,-1.896,-1.8983,-1.8959,-1.896,-1.896,-1.9005,-1.9006,-1.9006,0,0,0,0,0,0,-1.8952,-1.8953,-1.8967,-1.896,-1.8961,-1.8957,-1.8962,-1.8961,-1.8963,-1.896,-1.8959,-1.8959,-1.8958,-1.8959,-1.8971,-1.8982,-1.896,-1.8961,-1.9004,-1.9005,-1.9006,-1.9027,0,0,0,0,0,0,-1.8951,-1.8953,-1.896,-1.896,-1.8962,-1.8979,-1.8963,-1.8962,-1.8965,-1.8963,-1.8963,-1.8962,-1.8957,-1.897,-1.8972,-1.8983,-1.8961,-1.9003,-1.9004,-1.9006,-1.9025,-1.9029,-1.9032,0,0,0,0,0,-1.895,-1.8965,-1.8961,-1.8962,-1.897,-1.8979,-1.898,-1.8974,-1.8966,-1.8973,-1.8971,-1.8962,-1.8981,-1.8972,-1.8973,-1.8985,-1.9002,-1.9004,-1.9006,-1.9024,-1.9028,-1.9032,0,0,0,0,0,0,-1.8966,-1.8965,-1.896,-1.8975,-1.8978,-1.8977,-1.8985,-1.8979,-1.8983,-1.8981,-1.8974,-1.8974,-1.8988,-1.8987,-1.8977,-1.9003,-1.899,-1.8992,-1.9003,-1.9007,-1.901,-1.9011,-1.8962,0,0,0,0,0,-1.8971,-1.8979,-1.8978,-1.8991,-1.8993,-1.8989,-1.8992,-1.8988,-1.899,-1.8991,-1.899,-1.8992,-1.8998,-1.9002,-1.9008,-1.9025,-1.9026,-1.9034,-1.9037,-1.904,-1.9042,-1.9053,-1.9057,-1.9012,-1.9012,-1.9012,0,0,-1.8982,-1.8983,-1.8988,-1.8994,-1.8996,-1.9004,-1.899,-1.8999,-1.9005,-1.8992,-1.9004,-1.9004,-1.9005,-1.9021,-1.9027,-1.9021,-1.9054,-1.9042,-1.9044,-1.9045,-1.9055,-1.9059,-1.9063,-1.9014,-1.9013,-1.9013,0,0,-1.9007,-1.9007,-1.902,-1.9022,-1.9024,-1.9022,-1.9025,-1.9025,-1.9025,-1.9037,-1.9028,-1.9035,-1.9046,-1.9048,-1.905,-1.9077,-1.907,-1.9079,-1.9096,-1.9107,-1.9111,-1.9114,-1.9125,-1.9129,-1.9081,-1.9081,-1.9081,0,-1.902,-1.9033,-1.9027,-1.9037,-1.9041,-1.903,-1.9043,-1.9045,-1.9049,-1.9052,-1.9044,-1.9059,-1.9059,-1.9076,-1.9083,-1.9084,-1.9088,-1.908,-1.9111,-1.9114,-1.9117,-1.9127,-1.9132,-1.9083,-1.9083,-1.9082,-1.9082,0,-1.905,-1.9059,-1.9068,-1.9074,-1.9079,-1.909,-1.9086,-1.9091,-1.9087,-1.9085,-1.9099,-1.9099,-1.9105,-1.9108,-1.9103,-1.9125,-1.9121,-1.9112,-1.9099,-1.9122,-1.9132,-1.9136,-1.9084,-1.9084,-1.9084,-1.9083,0,0,-1.9084,-1.9087,-1.9091,-1.9094,-1.9097,-1.9104,-1.9115,-1.9122,-1.9128,-1.9131,-1.9141,-1.9151,-1.9143,-1.9146,-1.9141,-1.9151,-1.9175,-1.9141,-1.9141,-1.9149,-1.92,-1.9208,-1.9213,-1.9169,-1.917,-1.9171,-1.9201,0,-1.911,-1.913,-1.9126,-1.9146,-1.9155,-1.9146,-1.9156,-1.9159,-1.9158,-1.9165,-1.9164,-1.9172,-1.916,-1.9162,-1.9171,-1.917,-1.9185,-1.9167,-1.918,-1.918,-1.9181,-1.9218,-1.9226,-1.9255,-1.9205,-1.9205,-1.9206,0,-1.9143,-1.9149,-1.917,-1.9173,-1.9177,-1.9186,-1.9193,-1.92,-1.9203,-1.9202,-1.9206,-1.92,-1.9212,-1.9198,-1.9215,-1.9203,-1.9207,-1.9208,-1.9209,-1.9211,-1.9195,-1.9223,-1.9263,-1.9268,-1.9211,-1.9211,-1.9211,0,-1.9168,-1.9181,-1.9196,-1.9199,-1.9202,-1.9209,-1.9211,-1.9214,-1.9219,-1.9224,-1.9228,-1.9235,-1.9239,-1.9244,-1.924,-1.923,-1.9258,-1.9243,-1.9258,-1.9259,-1.9266,-1.9266,-1.931,-1.9266,-1.9266,-1.9266,-1.9266,0,-1.9198,-1.9212,-1.9208,-1.9218,-1.9233,-1.9228,-1.9244,-1.9244,-1.9247,-1.9257,-1.9248,-1.9257,-1.925,-1.9259,-1.9256,-1.9271,-1.9273,-1.9272,-1.9272,-1.9274,-1.9275,-1.9278,-1.9277,-1.9267,-1.9267,-1.9267,-1.9266,0,-1.923,-1.9227,-1.9244,-1.9246,-1.9247,-1.9259,-1.926,-1.9269,-1.9268,-1.9281,-1.9283,-1.9281,-1.9291,-1.9287,-1.9297,-1.9295,-1.9316,-1.9311,-1.9315,-1.9315,-1.9331,-1.933,-1.938,-1.9387,-1.9337,-1.9338,-1.9338,0,-1.925,-1.9261,-1.9265,-1.9271,-1.9274,-1.9283,-1.9289,-1.9284,-1.929,-1.9296,-1.9305,-1.9314,-1.9321,-1.9338,-1.9337,-1.9345,-1.9342,-1.9359,-1.9343,-1.9346,-1.9345,-1.9345,-1.9347,-1.9363,-1.9363,-1.9364,-1.9364,0,-1.9287,-1.9285,-1.9294,-1.9303,-1.931,-1.9316,-1.9322,-1.9327,-1.9323,-1.933,-1.9341,-1.9347,-1.9358,-1.9368,-1.9376,-1.9378,-1.9371,-1.9369,-1.9373,-1.9377,-1.9379,-1.938,-1.9326,-1.9368,-1.9368,-1.9367,-1.9367,-1.9367,-1.9314,-1.9324,-1.9329,-1.934,-1.9344,-1.9349,-1.9359,-1.9359,-1.9368,-1.9378,-1.9374,-1.9387,-1.9391,-1.9401,-1.9403,-1.9414,-1.9407,-1.9413,-1.9414,-1.9416,-1.942,-1.9377,-1.9415,-1.9414,-1.9414,-1.9414,-1.9414,0,-1.9352,-1.9355,-1.9365,-1.9374,-1.9382,-1.9375,-1.9381,-1.9389,-1.9401,-1.9405,-1.9413,-1.9427,-1.9436,-1.9437,-1.9446,-1.9454,-1.9452,-1.9457,-1.9457,-1.9458,-1.9424,-1.942,-1.946,-1.946,-1.946,-1.946,-1.946,-1.946,-1.9373,-1.9391,-1.939,-1.941,-1.9412,-1.9425,-1.943,-1.9435,-1.9439,-1.9455,-1.9463,-1.9464,-1.9467,-1.9477,-1.9486,-1.9486,-1.9491,-1.9498,-1.9497,-1.9465,-1.946,-1.9456,-1.9453,-1.9499,-1.9499,-1.9531,-1.9531,-1.9532]}]]